User: anonymous   Login
Location: Unspecified
(0.0000°N, 0.0000°E)
Time: 20:13:13
(UTC+00:00)
Language:

STARLINK-33920 - Orbit

View from above orbital plane
View from above orbital plane
View from above satellite
View from above satellite

Ground track
Ground track

The orbit is defined by the following mean orbital elements,

1 63710U          26145.59366872 +.00000000 +00000-0 -28503-3 0 00006
2 63710  53.1596 222.3697 0000840  61.0331 299.0755 15.31699163    06
Epoch (UTC): 25 May 2026 14:14:52
Eccentricity: 0.0000840
inclination: 53.1596°
perigee height: 470 km
apogee height: 471 km
right ascension of ascending node: 222.3697°
argument of perigee: 61.0331°
revolutions per day: 15.31699163
mean anomaly at epoch: 299.0755°

The dashed part of the orbit path shows where the satellite is in the earth's shadow,  

DLR